<?xml version="1.0"?>
<gpx xmlns="http://www.topografix.com/GPX/1/1" xmlns:xsi="http://www.w3.org/2001/XMLSchema-instance" version="1.1" creator="GPX RubyGem 1.0.0 -- http://dougfales.github.io/gpx/" xsi:schemaLocation="http://www.topografix.com/GPX/1/1 http://www.topografix.com/GPX/1/1/gpx.xsd">
  <metadata>
    <name/>
    <time>2026-05-07T21:02:27+00:00</time>
    <bound minlat="90.0" minlon="180.0" maxlat="-90.0" maxlon="-180.0"/>
  </metadata>
  <trk>
    <name/>
    <trkseg>
      <trkpt lat="45.422562" lon="7.038941">
        <time>1970-01-01T00:00:00+00:00</time>
        <ele>2746.0</ele>
      </trkpt>
      <trkpt lat="45.42257" lon="7.039049">
        <time>1970-01-01T00:00:00+00:00</time>
        <ele>2745.0</ele>
      </trkpt>
      <trkpt lat="45.422489" lon="7.039117">
        <time>1970-01-01T00:00:00+00:00</time>
        <ele>2743.0</ele>
      </trkpt>
      <trkpt lat="45.422395" lon="7.039284">
        <time>1970-01-01T00:00:00+00:00</time>
        <ele>2740.0</ele>
      </trkpt>
      <trkpt lat="45.422265" lon="7.039571">
        <time>1970-01-01T00:00:00+00:00</time>
        <ele>2736.0</ele>
      </trkpt>
      <trkpt lat="45.422149" lon="7.039731">
        <time>1970-01-01T00:00:00+00:00</time>
        <ele>2732.0</ele>
      </trkpt>
      <trkpt lat="45.422021" lon="7.039857">
        <time>1970-01-01T00:00:00+00:00</time>
        <ele>2729.0</ele>
      </trkpt>
      <trkpt lat="45.421921" lon="7.039879">
        <time>1970-01-01T00:00:00+00:00</time>
        <ele>2727.0</ele>
      </trkpt>
      <trkpt lat="45.421759" lon="7.039836">
        <time>1970-01-01T00:00:00+00:00</time>
        <ele>2724.0</ele>
      </trkpt>
      <trkpt lat="45.421669" lon="7.039903">
        <time>1970-01-01T00:00:00+00:00</time>
        <ele>2723.0</ele>
      </trkpt>
      <trkpt lat="45.421652" lon="7.040209">
        <time>1970-01-01T00:00:00+00:00</time>
        <ele>2723.0</ele>
      </trkpt>
      <trkpt lat="45.421567" lon="7.040375">
        <time>1970-01-01T00:00:00+00:00</time>
        <ele>2723.0</ele>
      </trkpt>
      <trkpt lat="45.421463" lon="7.040367">
        <time>1970-01-01T00:00:00+00:00</time>
        <ele>2722.0</ele>
      </trkpt>
      <trkpt lat="45.421422" lon="7.040295">
        <time>1970-01-01T00:00:00+00:00</time>
        <ele>2721.0</ele>
      </trkpt>
      <trkpt lat="45.421166" lon="7.04108">
        <time>1970-01-01T00:00:00+00:00</time>
        <ele>2727.0</ele>
      </trkpt>
      <trkpt lat="45.421031" lon="7.041331">
        <time>1970-01-01T00:00:00+00:00</time>
        <ele>2728.0</ele>
      </trkpt>
      <trkpt lat="45.42099" lon="7.041447">
        <time>1970-01-01T00:00:00+00:00</time>
        <ele>2728.0</ele>
      </trkpt>
      <trkpt lat="45.420874" lon="7.041558">
        <time>1970-01-01T00:00:00+00:00</time>
        <ele>2727.0</ele>
      </trkpt>
      <trkpt lat="45.4207" lon="7.041931">
        <time>1970-01-01T00:00:00+00:00</time>
        <ele>2728.0</ele>
      </trkpt>
      <trkpt lat="45.420628" lon="7.041984">
        <time>1970-01-01T00:00:00+00:00</time>
        <ele>2728.0</ele>
      </trkpt>
      <trkpt lat="45.420428" lon="7.04229">
        <time>1970-01-01T00:00:00+00:00</time>
        <ele>2729.0</ele>
      </trkpt>
      <trkpt lat="45.420376" lon="7.042427">
        <time>1970-01-01T00:00:00+00:00</time>
        <ele>2729.0</ele>
      </trkpt>
      <trkpt lat="45.420276" lon="7.042605">
        <time>1970-01-01T00:00:00+00:00</time>
        <ele>2729.0</ele>
      </trkpt>
      <trkpt lat="45.420067" lon="7.042893">
        <time>1970-01-01T00:00:00+00:00</time>
        <ele>2727.0</ele>
      </trkpt>
      <trkpt lat="45.419916" lon="7.043231">
        <time>1970-01-01T00:00:00+00:00</time>
        <ele>2718.0</ele>
      </trkpt>
      <trkpt lat="45.419844" lon="7.043316">
        <time>1970-01-01T00:00:00+00:00</time>
        <ele>2715.0</ele>
      </trkpt>
      <trkpt lat="45.419787" lon="7.043491">
        <time>1970-01-01T00:00:00+00:00</time>
        <ele>2714.0</ele>
      </trkpt>
      <trkpt lat="45.419529" lon="7.043846">
        <time>1970-01-01T00:00:00+00:00</time>
        <ele>2706.0</ele>
      </trkpt>
      <trkpt lat="45.419507" lon="7.043945">
        <time>1970-01-01T00:00:00+00:00</time>
        <ele>2707.0</ele>
      </trkpt>
      <trkpt lat="45.419302" lon="7.044179">
        <time>1970-01-01T00:00:00+00:00</time>
        <ele>2707.0</ele>
      </trkpt>
      <trkpt lat="45.419231" lon="7.044216">
        <time>1970-01-01T00:00:00+00:00</time>
        <ele>2706.0</ele>
      </trkpt>
      <trkpt lat="45.418805" lon="7.044747">
        <time>1970-01-01T00:00:00+00:00</time>
        <ele>2708.0</ele>
      </trkpt>
      <trkpt lat="45.418738" lon="7.044779">
        <time>1970-01-01T00:00:00+00:00</time>
        <ele>2707.0</ele>
      </trkpt>
      <trkpt lat="45.418641" lon="7.044896">
        <time>1970-01-01T00:00:00+00:00</time>
        <ele>2705.0</ele>
      </trkpt>
      <trkpt lat="45.418596" lon="7.045062">
        <time>1970-01-01T00:00:00+00:00</time>
        <ele>2708.0</ele>
      </trkpt>
      <trkpt lat="45.418541" lon="7.04519">
        <time>1970-01-01T00:00:00+00:00</time>
        <ele>2709.0</ele>
      </trkpt>
      <trkpt lat="45.418441" lon="7.04533">
        <time>1970-01-01T00:00:00+00:00</time>
        <ele>2709.0</ele>
      </trkpt>
      <trkpt lat="45.418349" lon="7.045414">
        <time>1970-01-01T00:00:00+00:00</time>
        <ele>2709.0</ele>
      </trkpt>
      <trkpt lat="45.418294" lon="7.045531">
        <time>1970-01-01T00:00:00+00:00</time>
        <ele>2711.0</ele>
      </trkpt>
      <trkpt lat="45.418136" lon="7.045651">
        <time>1970-01-01T00:00:00+00:00</time>
        <ele>2709.0</ele>
      </trkpt>
      <trkpt lat="45.417968" lon="7.046079">
        <time>1970-01-01T00:00:00+00:00</time>
        <ele>2714.0</ele>
      </trkpt>
      <trkpt lat="45.417923" lon="7.046306">
        <time>1970-01-01T00:00:00+00:00</time>
        <ele>2719.0</ele>
      </trkpt>
      <trkpt lat="45.417815" lon="7.046516">
        <time>1970-01-01T00:00:00+00:00</time>
        <ele>2723.0</ele>
      </trkpt>
      <trkpt lat="45.417535" lon="7.047184">
        <time>1970-01-01T00:00:00+00:00</time>
        <ele>2730.0</ele>
      </trkpt>
      <trkpt lat="45.417326" lon="7.047554">
        <time>1970-01-01T00:00:00+00:00</time>
        <ele>2733.0</ele>
      </trkpt>
      <trkpt lat="45.417293" lon="7.047775">
        <time>1970-01-01T00:00:00+00:00</time>
        <ele>2735.0</ele>
      </trkpt>
      <trkpt lat="45.417256" lon="7.048221">
        <time>1970-01-01T00:00:00+00:00</time>
        <ele>2739.0</ele>
      </trkpt>
      <trkpt lat="45.417207" lon="7.04835">
        <time>1970-01-01T00:00:00+00:00</time>
        <ele>2740.0</ele>
      </trkpt>
      <trkpt lat="45.417185" lon="7.048688">
        <time>1970-01-01T00:00:00+00:00</time>
        <ele>2743.0</ele>
      </trkpt>
      <trkpt lat="45.417121" lon="7.049189">
        <time>1970-01-01T00:00:00+00:00</time>
        <ele>2746.0</ele>
      </trkpt>
      <trkpt lat="45.416845" lon="7.049361">
        <time>1970-01-01T00:00:00+00:00</time>
        <ele>2748.0</ele>
      </trkpt>
      <trkpt lat="45.416628" lon="7.050134">
        <time>1970-01-01T00:00:00+00:00</time>
        <ele>2760.0</ele>
      </trkpt>
      <trkpt lat="45.416426" lon="7.050585">
        <time>1970-01-01T00:00:00+00:00</time>
        <ele>2767.0</ele>
      </trkpt>
      <trkpt lat="45.416366" lon="7.050749">
        <time>1970-01-01T00:00:00+00:00</time>
        <ele>2770.0</ele>
      </trkpt>
      <trkpt lat="45.416309" lon="7.050988">
        <time>1970-01-01T00:00:00+00:00</time>
        <ele>2778.0</ele>
      </trkpt>
      <trkpt lat="45.416227" lon="7.051151">
        <time>1970-01-01T00:00:00+00:00</time>
        <ele>2782.0</ele>
      </trkpt>
      <trkpt lat="45.416129" lon="7.051282">
        <time>1970-01-01T00:00:00+00:00</time>
        <ele>2783.0</ele>
      </trkpt>
      <trkpt lat="45.416043" lon="7.051439">
        <time>1970-01-01T00:00:00+00:00</time>
        <ele>2784.0</ele>
      </trkpt>
      <trkpt lat="45.416018" lon="7.051638">
        <time>1970-01-01T00:00:00+00:00</time>
        <ele>2789.0</ele>
      </trkpt>
      <trkpt lat="45.415828" lon="7.051993">
        <time>1970-01-01T00:00:00+00:00</time>
        <ele>2799.0</ele>
      </trkpt>
      <trkpt lat="45.415779" lon="7.052189">
        <time>1970-01-01T00:00:00+00:00</time>
        <ele>2804.0</ele>
      </trkpt>
      <trkpt lat="45.415816" lon="7.0525">
        <time>1970-01-01T00:00:00+00:00</time>
        <ele>2810.0</ele>
      </trkpt>
      <trkpt lat="45.415734" lon="7.052652">
        <time>1970-01-01T00:00:00+00:00</time>
        <ele>2813.0</ele>
      </trkpt>
      <trkpt lat="45.415685" lon="7.053043">
        <time>1970-01-01T00:00:00+00:00</time>
        <ele>2816.0</ele>
      </trkpt>
      <trkpt lat="45.415556" lon="7.05329">
        <time>1970-01-01T00:00:00+00:00</time>
        <ele>2814.0</ele>
      </trkpt>
      <trkpt lat="45.415578" lon="7.053658">
        <time>1970-01-01T00:00:00+00:00</time>
        <ele>2813.0</ele>
      </trkpt>
      <trkpt lat="45.415589" lon="7.054213">
        <time>1970-01-01T00:00:00+00:00</time>
        <ele>2815.0</ele>
      </trkpt>
      <trkpt lat="45.415267" lon="7.054719">
        <time>1970-01-01T00:00:00+00:00</time>
        <ele>2816.0</ele>
      </trkpt>
      <trkpt lat="45.414856" lon="7.054861">
        <time>1970-01-01T00:00:00+00:00</time>
        <ele>2817.0</ele>
      </trkpt>
      <trkpt lat="45.413712" lon="7.055795">
        <time>1970-01-01T00:00:00+00:00</time>
        <ele>2826.0</ele>
      </trkpt>
      <trkpt lat="45.413135" lon="7.056016">
        <time>1970-01-01T00:00:00+00:00</time>
        <ele>2834.0</ele>
      </trkpt>
      <trkpt lat="45.412169" lon="7.057234">
        <time>1970-01-01T00:00:00+00:00</time>
        <ele>2861.0</ele>
      </trkpt>
      <trkpt lat="45.411958" lon="7.057867">
        <time>1970-01-01T00:00:00+00:00</time>
        <ele>2866.0</ele>
      </trkpt>
      <trkpt lat="45.411558" lon="7.05823">
        <time>1970-01-01T00:00:00+00:00</time>
        <ele>2878.0</ele>
      </trkpt>
      <trkpt lat="45.410414" lon="7.058657">
        <time>1970-01-01T00:00:00+00:00</time>
        <ele>2890.0</ele>
      </trkpt>
      <trkpt lat="45.40967" lon="7.05986">
        <time>1970-01-01T00:00:00+00:00</time>
        <ele>2903.0</ele>
      </trkpt>
      <trkpt lat="45.40916" lon="7.060745">
        <time>1970-01-01T00:00:00+00:00</time>
        <ele>2916.0</ele>
      </trkpt>
      <trkpt lat="45.408893" lon="7.061916">
        <time>1970-01-01T00:00:00+00:00</time>
        <ele>2946.0</ele>
      </trkpt>
      <trkpt lat="45.408638" lon="7.062802">
        <time>1970-01-01T00:00:00+00:00</time>
        <ele>2967.0</ele>
      </trkpt>
      <trkpt lat="45.409093" lon="7.064146">
        <time>1970-01-01T00:00:00+00:00</time>
        <ele>3003.0</ele>
      </trkpt>
      <trkpt lat="45.408971" lon="7.064763">
        <time>1970-01-01T00:00:00+00:00</time>
        <ele>3018.0</ele>
      </trkpt>
      <trkpt lat="45.409248" lon="7.065269">
        <time>1970-01-01T00:00:00+00:00</time>
        <ele>3036.0</ele>
      </trkpt>
      <trkpt lat="45.410126" lon="7.065443">
        <time>1970-01-01T00:00:00+00:00</time>
        <ele>3050.0</ele>
      </trkpt>
      <trkpt lat="45.410636" lon="7.065902">
        <time>1970-01-01T00:00:00+00:00</time>
        <ele>3063.0</ele>
      </trkpt>
      <trkpt lat="45.411025" lon="7.066614">
        <time>1970-01-01T00:00:00+00:00</time>
        <ele>3087.0</ele>
      </trkpt>
      <trkpt lat="45.410725" lon="7.06742">
        <time>1970-01-01T00:00:00+00:00</time>
        <ele>3117.0</ele>
      </trkpt>
      <trkpt lat="45.410259" lon="7.067958">
        <time>1970-01-01T00:00:00+00:00</time>
        <ele>3136.0</ele>
      </trkpt>
      <trkpt lat="45.410059" lon="7.068701">
        <time>1970-01-01T00:00:00+00:00</time>
        <ele>3162.0</ele>
      </trkpt>
      <trkpt lat="45.410214" lon="7.069176">
        <time>1970-01-01T00:00:00+00:00</time>
        <ele>3193.0</ele>
      </trkpt>
      <trkpt lat="45.410303" lon="7.069239">
        <time>1970-01-01T00:00:00+00:00</time>
        <ele>3198.0</ele>
      </trkpt>
      <trkpt lat="45.410447" lon="7.07003">
        <time>1970-01-01T00:00:00+00:00</time>
        <ele>3229.0</ele>
      </trkpt>
      <trkpt lat="45.410525" lon="7.070346">
        <time>1970-01-01T00:00:00+00:00</time>
        <ele>3239.0</ele>
      </trkpt>
      <trkpt lat="45.410636" lon="7.070552">
        <time>1970-01-01T00:00:00+00:00</time>
        <ele>3241.0</ele>
      </trkpt>
      <trkpt lat="45.410481" lon="7.070663">
        <time>1970-01-01T00:00:00+00:00</time>
        <ele>3239.0</ele>
      </trkpt>
      <trkpt lat="45.408882" lon="7.07109">
        <time>1970-01-01T00:00:00+00:00</time>
        <ele>3256.0</ele>
      </trkpt>
      <trkpt lat="45.408038" lon="7.071153">
        <time>1970-01-01T00:00:00+00:00</time>
        <ele>3288.0</ele>
      </trkpt>
      <trkpt lat="45.40756" lon="7.07139">
        <time>1970-01-01T00:00:00+00:00</time>
        <ele>3303.0</ele>
      </trkpt>
      <trkpt lat="45.407072" lon="7.07139">
        <time>1970-01-01T00:00:00+00:00</time>
        <ele>3331.0</ele>
      </trkpt>
      <trkpt lat="45.406905" lon="7.071501">
        <time>1970-01-01T00:00:00+00:00</time>
        <ele>3338.0</ele>
      </trkpt>
      <trkpt lat="45.406458" lon="7.071616">
        <time>1970-01-01T00:00:00+00:00</time>
        <ele>3350.0</ele>
      </trkpt>
      <trkpt lat="45.406458" lon="7.071616">
        <time>1970-01-01T00:00:00+00:00</time>
        <ele>3350.0</ele>
      </trkpt>
      <trkpt lat="45.406905" lon="7.071501">
        <time>1970-01-01T00:00:00+00:00</time>
        <ele>3338.0</ele>
      </trkpt>
      <trkpt lat="45.407072" lon="7.07139">
        <time>1970-01-01T00:00:00+00:00</time>
        <ele>3331.0</ele>
      </trkpt>
      <trkpt lat="45.40756" lon="7.07139">
        <time>1970-01-01T00:00:00+00:00</time>
        <ele>3303.0</ele>
      </trkpt>
      <trkpt lat="45.408038" lon="7.071153">
        <time>1970-01-01T00:00:00+00:00</time>
        <ele>3288.0</ele>
      </trkpt>
      <trkpt lat="45.408882" lon="7.07109">
        <time>1970-01-01T00:00:00+00:00</time>
        <ele>3256.0</ele>
      </trkpt>
      <trkpt lat="45.410481" lon="7.070663">
        <time>1970-01-01T00:00:00+00:00</time>
        <ele>3239.0</ele>
      </trkpt>
      <trkpt lat="45.410636" lon="7.070552">
        <time>1970-01-01T00:00:00+00:00</time>
        <ele>3241.0</ele>
      </trkpt>
      <trkpt lat="45.410525" lon="7.070346">
        <time>1970-01-01T00:00:00+00:00</time>
        <ele>3239.0</ele>
      </trkpt>
      <trkpt lat="45.410447" lon="7.07003">
        <time>1970-01-01T00:00:00+00:00</time>
        <ele>3229.0</ele>
      </trkpt>
      <trkpt lat="45.410303" lon="7.069239">
        <time>1970-01-01T00:00:00+00:00</time>
        <ele>3198.0</ele>
      </trkpt>
      <trkpt lat="45.410214" lon="7.069176">
        <time>1970-01-01T00:00:00+00:00</time>
        <ele>3193.0</ele>
      </trkpt>
      <trkpt lat="45.410059" lon="7.068701">
        <time>1970-01-01T00:00:00+00:00</time>
        <ele>3162.0</ele>
      </trkpt>
      <trkpt lat="45.410259" lon="7.067958">
        <time>1970-01-01T00:00:00+00:00</time>
        <ele>3136.0</ele>
      </trkpt>
      <trkpt lat="45.410725" lon="7.06742">
        <time>1970-01-01T00:00:00+00:00</time>
        <ele>3117.0</ele>
      </trkpt>
      <trkpt lat="45.411025" lon="7.066614">
        <time>1970-01-01T00:00:00+00:00</time>
        <ele>3087.0</ele>
      </trkpt>
      <trkpt lat="45.410636" lon="7.065902">
        <time>1970-01-01T00:00:00+00:00</time>
        <ele>3063.0</ele>
      </trkpt>
      <trkpt lat="45.410126" lon="7.065443">
        <time>1970-01-01T00:00:00+00:00</time>
        <ele>3050.0</ele>
      </trkpt>
      <trkpt lat="45.409248" lon="7.065269">
        <time>1970-01-01T00:00:00+00:00</time>
        <ele>3036.0</ele>
      </trkpt>
      <trkpt lat="45.408971" lon="7.064763">
        <time>1970-01-01T00:00:00+00:00</time>
        <ele>3018.0</ele>
      </trkpt>
      <trkpt lat="45.409093" lon="7.064146">
        <time>1970-01-01T00:00:00+00:00</time>
        <ele>3003.0</ele>
      </trkpt>
      <trkpt lat="45.408638" lon="7.062802">
        <time>1970-01-01T00:00:00+00:00</time>
        <ele>2967.0</ele>
      </trkpt>
      <trkpt lat="45.408893" lon="7.061916">
        <time>1970-01-01T00:00:00+00:00</time>
        <ele>2946.0</ele>
      </trkpt>
      <trkpt lat="45.40916" lon="7.060745">
        <time>1970-01-01T00:00:00+00:00</time>
        <ele>2916.0</ele>
      </trkpt>
      <trkpt lat="45.40967" lon="7.05986">
        <time>1970-01-01T00:00:00+00:00</time>
        <ele>2903.0</ele>
      </trkpt>
      <trkpt lat="45.410414" lon="7.058657">
        <time>1970-01-01T00:00:00+00:00</time>
        <ele>2890.0</ele>
      </trkpt>
      <trkpt lat="45.411558" lon="7.05823">
        <time>1970-01-01T00:00:00+00:00</time>
        <ele>2878.0</ele>
      </trkpt>
      <trkpt lat="45.411958" lon="7.057867">
        <time>1970-01-01T00:00:00+00:00</time>
        <ele>2866.0</ele>
      </trkpt>
      <trkpt lat="45.412169" lon="7.057234">
        <time>1970-01-01T00:00:00+00:00</time>
        <ele>2861.0</ele>
      </trkpt>
      <trkpt lat="45.413135" lon="7.056016">
        <time>1970-01-01T00:00:00+00:00</time>
        <ele>2834.0</ele>
      </trkpt>
      <trkpt lat="45.413712" lon="7.055795">
        <time>1970-01-01T00:00:00+00:00</time>
        <ele>2826.0</ele>
      </trkpt>
      <trkpt lat="45.414856" lon="7.054861">
        <time>1970-01-01T00:00:00+00:00</time>
        <ele>2817.0</ele>
      </trkpt>
      <trkpt lat="45.415267" lon="7.054719">
        <time>1970-01-01T00:00:00+00:00</time>
        <ele>2816.0</ele>
      </trkpt>
      <trkpt lat="45.415589" lon="7.054213">
        <time>1970-01-01T00:00:00+00:00</time>
        <ele>2815.0</ele>
      </trkpt>
      <trkpt lat="45.415578" lon="7.053658">
        <time>1970-01-01T00:00:00+00:00</time>
        <ele>2813.0</ele>
      </trkpt>
      <trkpt lat="45.415556" lon="7.05329">
        <time>1970-01-01T00:00:00+00:00</time>
        <ele>2814.0</ele>
      </trkpt>
      <trkpt lat="45.415685" lon="7.053043">
        <time>1970-01-01T00:00:00+00:00</time>
        <ele>2816.0</ele>
      </trkpt>
      <trkpt lat="45.415734" lon="7.052652">
        <time>1970-01-01T00:00:00+00:00</time>
        <ele>2813.0</ele>
      </trkpt>
      <trkpt lat="45.415816" lon="7.0525">
        <time>1970-01-01T00:00:00+00:00</time>
        <ele>2810.0</ele>
      </trkpt>
      <trkpt lat="45.415779" lon="7.052189">
        <time>1970-01-01T00:00:00+00:00</time>
        <ele>2804.0</ele>
      </trkpt>
      <trkpt lat="45.415828" lon="7.051993">
        <time>1970-01-01T00:00:00+00:00</time>
        <ele>2799.0</ele>
      </trkpt>
      <trkpt lat="45.416018" lon="7.051638">
        <time>1970-01-01T00:00:00+00:00</time>
        <ele>2789.0</ele>
      </trkpt>
      <trkpt lat="45.416043" lon="7.051439">
        <time>1970-01-01T00:00:00+00:00</time>
        <ele>2784.0</ele>
      </trkpt>
      <trkpt lat="45.416129" lon="7.051282">
        <time>1970-01-01T00:00:00+00:00</time>
        <ele>2783.0</ele>
      </trkpt>
      <trkpt lat="45.416227" lon="7.051151">
        <time>1970-01-01T00:00:00+00:00</time>
        <ele>2782.0</ele>
      </trkpt>
      <trkpt lat="45.416309" lon="7.050988">
        <time>1970-01-01T00:00:00+00:00</time>
        <ele>2778.0</ele>
      </trkpt>
      <trkpt lat="45.416366" lon="7.050749">
        <time>1970-01-01T00:00:00+00:00</time>
        <ele>2770.0</ele>
      </trkpt>
      <trkpt lat="45.416426" lon="7.050585">
        <time>1970-01-01T00:00:00+00:00</time>
        <ele>2767.0</ele>
      </trkpt>
      <trkpt lat="45.416628" lon="7.050134">
        <time>1970-01-01T00:00:00+00:00</time>
        <ele>2760.0</ele>
      </trkpt>
      <trkpt lat="45.416845" lon="7.049361">
        <time>1970-01-01T00:00:00+00:00</time>
        <ele>2748.0</ele>
      </trkpt>
      <trkpt lat="45.417121" lon="7.049189">
        <time>1970-01-01T00:00:00+00:00</time>
        <ele>2746.0</ele>
      </trkpt>
      <trkpt lat="45.417185" lon="7.048688">
        <time>1970-01-01T00:00:00+00:00</time>
        <ele>2743.0</ele>
      </trkpt>
      <trkpt lat="45.417207" lon="7.04835">
        <time>1970-01-01T00:00:00+00:00</time>
        <ele>2740.0</ele>
      </trkpt>
      <trkpt lat="45.417256" lon="7.048221">
        <time>1970-01-01T00:00:00+00:00</time>
        <ele>2739.0</ele>
      </trkpt>
      <trkpt lat="45.417293" lon="7.047775">
        <time>1970-01-01T00:00:00+00:00</time>
        <ele>2735.0</ele>
      </trkpt>
      <trkpt lat="45.417326" lon="7.047554">
        <time>1970-01-01T00:00:00+00:00</time>
        <ele>2733.0</ele>
      </trkpt>
      <trkpt lat="45.417535" lon="7.047184">
        <time>1970-01-01T00:00:00+00:00</time>
        <ele>2730.0</ele>
      </trkpt>
      <trkpt lat="45.417815" lon="7.046516">
        <time>1970-01-01T00:00:00+00:00</time>
        <ele>2723.0</ele>
      </trkpt>
      <trkpt lat="45.417923" lon="7.046306">
        <time>1970-01-01T00:00:00+00:00</time>
        <ele>2719.0</ele>
      </trkpt>
      <trkpt lat="45.417968" lon="7.046079">
        <time>1970-01-01T00:00:00+00:00</time>
        <ele>2714.0</ele>
      </trkpt>
      <trkpt lat="45.418136" lon="7.045651">
        <time>1970-01-01T00:00:00+00:00</time>
        <ele>2709.0</ele>
      </trkpt>
      <trkpt lat="45.418294" lon="7.045531">
        <time>1970-01-01T00:00:00+00:00</time>
        <ele>2711.0</ele>
      </trkpt>
      <trkpt lat="45.418349" lon="7.045414">
        <time>1970-01-01T00:00:00+00:00</time>
        <ele>2709.0</ele>
      </trkpt>
      <trkpt lat="45.418441" lon="7.04533">
        <time>1970-01-01T00:00:00+00:00</time>
        <ele>2709.0</ele>
      </trkpt>
      <trkpt lat="45.418541" lon="7.04519">
        <time>1970-01-01T00:00:00+00:00</time>
        <ele>2709.0</ele>
      </trkpt>
      <trkpt lat="45.418596" lon="7.045062">
        <time>1970-01-01T00:00:00+00:00</time>
        <ele>2708.0</ele>
      </trkpt>
      <trkpt lat="45.418641" lon="7.044896">
        <time>1970-01-01T00:00:00+00:00</time>
        <ele>2705.0</ele>
      </trkpt>
      <trkpt lat="45.418738" lon="7.044779">
        <time>1970-01-01T00:00:00+00:00</time>
        <ele>2707.0</ele>
      </trkpt>
      <trkpt lat="45.418805" lon="7.044747">
        <time>1970-01-01T00:00:00+00:00</time>
        <ele>2708.0</ele>
      </trkpt>
      <trkpt lat="45.419231" lon="7.044216">
        <time>1970-01-01T00:00:00+00:00</time>
        <ele>2706.0</ele>
      </trkpt>
      <trkpt lat="45.419302" lon="7.044179">
        <time>1970-01-01T00:00:00+00:00</time>
        <ele>2707.0</ele>
      </trkpt>
      <trkpt lat="45.419507" lon="7.043945">
        <time>1970-01-01T00:00:00+00:00</time>
        <ele>2707.0</ele>
      </trkpt>
      <trkpt lat="45.419529" lon="7.043846">
        <time>1970-01-01T00:00:00+00:00</time>
        <ele>2706.0</ele>
      </trkpt>
      <trkpt lat="45.419787" lon="7.043491">
        <time>1970-01-01T00:00:00+00:00</time>
        <ele>2714.0</ele>
      </trkpt>
      <trkpt lat="45.419844" lon="7.043316">
        <time>1970-01-01T00:00:00+00:00</time>
        <ele>2715.0</ele>
      </trkpt>
      <trkpt lat="45.419916" lon="7.043231">
        <time>1970-01-01T00:00:00+00:00</time>
        <ele>2718.0</ele>
      </trkpt>
      <trkpt lat="45.420067" lon="7.042893">
        <time>1970-01-01T00:00:00+00:00</time>
        <ele>2727.0</ele>
      </trkpt>
      <trkpt lat="45.420276" lon="7.042605">
        <time>1970-01-01T00:00:00+00:00</time>
        <ele>2729.0</ele>
      </trkpt>
      <trkpt lat="45.420376" lon="7.042427">
        <time>1970-01-01T00:00:00+00:00</time>
        <ele>2729.0</ele>
      </trkpt>
      <trkpt lat="45.420428" lon="7.04229">
        <time>1970-01-01T00:00:00+00:00</time>
        <ele>2729.0</ele>
      </trkpt>
      <trkpt lat="45.420628" lon="7.041984">
        <time>1970-01-01T00:00:00+00:00</time>
        <ele>2728.0</ele>
      </trkpt>
      <trkpt lat="45.4207" lon="7.041931">
        <time>1970-01-01T00:00:00+00:00</time>
        <ele>2728.0</ele>
      </trkpt>
      <trkpt lat="45.420874" lon="7.041558">
        <time>1970-01-01T00:00:00+00:00</time>
        <ele>2727.0</ele>
      </trkpt>
      <trkpt lat="45.42099" lon="7.041447">
        <time>1970-01-01T00:00:00+00:00</time>
        <ele>2728.0</ele>
      </trkpt>
      <trkpt lat="45.421031" lon="7.041331">
        <time>1970-01-01T00:00:00+00:00</time>
        <ele>2728.0</ele>
      </trkpt>
      <trkpt lat="45.421166" lon="7.04108">
        <time>1970-01-01T00:00:00+00:00</time>
        <ele>2727.0</ele>
      </trkpt>
      <trkpt lat="45.421422" lon="7.040295">
        <time>1970-01-01T00:00:00+00:00</time>
        <ele>2721.0</ele>
      </trkpt>
      <trkpt lat="45.421463" lon="7.040367">
        <time>1970-01-01T00:00:00+00:00</time>
        <ele>2722.0</ele>
      </trkpt>
      <trkpt lat="45.421567" lon="7.040375">
        <time>1970-01-01T00:00:00+00:00</time>
        <ele>2723.0</ele>
      </trkpt>
      <trkpt lat="45.421652" lon="7.040209">
        <time>1970-01-01T00:00:00+00:00</time>
        <ele>2723.0</ele>
      </trkpt>
      <trkpt lat="45.421669" lon="7.039903">
        <time>1970-01-01T00:00:00+00:00</time>
        <ele>2723.0</ele>
      </trkpt>
      <trkpt lat="45.421759" lon="7.039836">
        <time>1970-01-01T00:00:00+00:00</time>
        <ele>2724.0</ele>
      </trkpt>
      <trkpt lat="45.421921" lon="7.039879">
        <time>1970-01-01T00:00:00+00:00</time>
        <ele>2727.0</ele>
      </trkpt>
      <trkpt lat="45.422021" lon="7.039857">
        <time>1970-01-01T00:00:00+00:00</time>
        <ele>2729.0</ele>
      </trkpt>
      <trkpt lat="45.422149" lon="7.039731">
        <time>1970-01-01T00:00:00+00:00</time>
        <ele>2732.0</ele>
      </trkpt>
      <trkpt lat="45.422265" lon="7.039571">
        <time>1970-01-01T00:00:00+00:00</time>
        <ele>2736.0</ele>
      </trkpt>
      <trkpt lat="45.422395" lon="7.039284">
        <time>1970-01-01T00:00:00+00:00</time>
        <ele>2740.0</ele>
      </trkpt>
      <trkpt lat="45.422489" lon="7.039117">
        <time>1970-01-01T00:00:00+00:00</time>
        <ele>2743.0</ele>
      </trkpt>
      <trkpt lat="45.42257" lon="7.039049">
        <time>1970-01-01T00:00:00+00:00</time>
        <ele>2745.0</ele>
      </trkpt>
      <trkpt lat="45.422562" lon="7.038941">
        <time>1970-01-01T00:00:00+00:00</time>
        <ele>2746.0</ele>
      </trkpt>
    </trkseg>
  </trk>
</gpx>
